Hourly Data Report for October 29, 2015

All times are specified in Local Standard Time (LST). Add 1 hour to adjust for Daylight Saving Time where and when it is observed.

IQALUIT CLIMATE
NUNAVUT

63°44'50.000" N
68°32'40.000" W
33.50 m
2402592
71321
XFB

Download Data

Hourly Data (October 2015)
Hourly Data Report for October 29, 2015
Temp Definition
°C
Dew Point Temp Definition
°C
Rel Hum Definition
%
Wind Dir Definition
10's deg

Wind Spd Definition
km/h
Visibility Definition
km
Stn Press Definition
kPa
Hmdx Definition


Wind Chill Definition


Weather Definition


TIME
00:00 -17.5 -19.9 82 33 24   101.06   -28 LegendNANA
01:00 -19.1 -21.5 81 32 19   101.04   -29 LegendNANA
02:00 -19.4 -21.6 82 33 17   101.06   -29 LegendNANA
03:00 -20.1 -22.4 82 32 19   101.02   -30 LegendNANA
04:00 -20.5 -22.9 81 32 19   101.01   -31 LegendNANA
05:00 -20.4 -23.2 79 32 18   100.96   -30 LegendNANA
06:00 -18.9 -22.3 75 33 12   100.91   -27 LegendNANA
07:00 -20.1 -23.1 77 33 14   100.87   -29 LegendNANA
08:00 -18.2 -22.1 71 33 7   100.82   -24 LegendNANA
09:00 -16.9 -21.7 67 35 5   100.78   -21 LegendNANA
10:00 -16.0 -21.1 65 1 4   100.72   -19 LegendNANA
11:00 -13.2 -19.3 61 8 9   100.65   -19 LegendNANA
12:00 -12.4 -19.0 58 10 9   100.59   -18 LegendNANA
13:00 -12.0 -18.0 61 11 10   100.52   -18 LegendNANA
14:00 -12.0 -16.8 68 12 12   100.47   -18 LegendNANA
15:00 -13.5 -16.9 75 28 5   100.42   -17 LegendNANA
16:00 -13.7 -17.1 76 33 6   100.33   -18 LegendNANA
17:00 -14.3 -16.9 80 33 7   100.23   -19 LegendNANA
18:00 -13.6 -16.1 82 32 10   100.15   -20 LegendNANA
19:00 -13.2 -15.7 81 32 16   100.05   -21 LegendNANA
20:00 -10.2 -13.5 77 10 4   99.98   -13 LegendNANA
21:00 -8.5 -14.1 64 9 17   99.89   -15 LegendNANA
22:00 -8.6 -14.0 65 8 26   99.77   -17 LegendNANA
23:00 -8.5 -13.4 68 7 21   99.66   -16 LegendNANA

Notes on Data Quality.

Legend

  • E = Estimated
  • M = Missing
  • NA = Not Available
  • ‡ = Partner data that is not subject to review by the National Climate Archives
Date modified: